#timestamp,LO_Frequency,Hit,StdDev 
1577849395.7,286047012.8,P
1577849415.6,286047014.9,P
1577849435.4,286047014.6,P
1577849455.3,286047016.7,Y
1577849475.1,286047002.4,P
1577849476.0,286047002.4,N
1577849495.8,286047002.6,N
1577849515.7,286047001.9,N
1577849535.5,286047001.5,N
1577849555.3,286047002.1,N
1577849575.2,286047002.0,N
1577849595.0,286047002.0,N
1577849595.9,286047002.0,N
1577849615.8,286047001.5,N
1577849635.6,286047004.4,N
1577849655.4,286047002.9,N
1577849675.3,286047005.6,N
1577849695.1,286047005.0,N
1577849715.8,286047005.2,N
1577849735.7,286047005.2,N
1577849755.5,286047004.9,N
1577849775.4,286047005.2,N
1577849795.2,286047007.3,N
1577849815.0,286047008.8,Y
1577849815.9,286047008.8,P
1577849835.8,286047003.6,N
1577849855.6,286047003.2,N
1577849875.5,286047003.9,N
1577849895.3,286047003.4,N
1577849915.1,286047004.1,N
1577849935.9,286047005.6,Y
1577849955.7,286047002.4,P
1577849975.5,286047001.9,N
1577849995.4,286047003.5,P
1577850015.2,286047005.3,Y
1577850035.1,286047004.3,P
1577850036.0,286047004.3,P
1577850055.8,286047004.3,P
1577850075.6,286047001.5,N
1577850095.5,286047005.8,Y
1577850115.3,286046999.8,P
1577850135.1,286046999.0,N
1577850155.9,286046996.5,N
1577850175.7,286046997.0,N
1577850195.6,286046997.6,N
1577850215.4,286046997.3,N
1577850235.2,286046999.3,N
1577850255.1,286046996.9,N
1577850256.0,286046996.9,N
1577850275.8,286046998.7,N
1577850295.6,286046997.0,N
1577850315.5,286046996.6,N
1577850335.3,286046997.1,N
1577850355.2,286046996.8,N
1577850375.9,286046999.6,N
1577850395.7,286046999.3,N
1577850415.6,286046997.0,N
1577850435.4,286046997.8,N
1577850455.2,286046996.6,N
1577850475.1,286046997.1,N
1577850476.0,286046997.1,N
1577850495.8,286046995.4,N
1577850515.7,286046995.1,N
1577850535.5,286046996.1,N
1577850555.3,286046995.8,N
1577850575.2,286046996.0,N
1577850595.0,286046995.7,N
1577850595.9,286046995.7,N
1577850615.8,286046993.3,Y
1577850635.6,286046997.4,P
1577850655.4,286046996.7,P
1577850675.3,286046999.2,N
1577850695.1,286046996.7,Y
1577850715.9,286046999.5,P
1577850735.7,286046996.6,P
1577850755.5,286046996.9,N
1577850775.4,286046999.0,N
1577850795.2,286046996.5,Y
1577850815.0,286047000.8,P
1577850816.0,286047000.8,N
1577850835.8,286047000.6,N
1577850855.6,286047001.2,N
1577850875.5,286046998.2,N
1577850895.3,286047001.0,N
1577850915.1,286046998.1,N
1577850935.9,286047000.8,N
1577850955.7,286047001.2,N
1577850975.6,286046996.6,N
1577850995.4,286046999.4,N
1577851015.2,286046999.1,N
1577851035.1,286046999.6,N
1577851036.0,286046999.6,N
1577851055.8,286046997.7,N
1577851075.6,286046997.1,N
1577851095.5,286046996.7,N
1577851115.3,286046997.8,N
1577851135.1,286046997.5,N
1577851155.9,286046996.5,N
1577851175.7,286046999.6,N
1577851195.6,286046996.5,N
